TimeCET,TemperatureF,Dew PointF,Humidity,Sea Level PressureIn,VisibilityMPH,Wind Direction,Wind SpeedMPH,Gust SpeedMPH,PrecipitationIn,Events,Conditions,WindDirDegrees,DateUTC
12:45 AM,46.4,44.6,93,30.27,3.1,Calm,Calm,-,N/A,,Overcast,0,2012-11-23 23:45:00
1:00 AM,46,44,89,30.28,3,Calm,Calm,,,,Mist,,2012-11-24 00:00:00
1:45 AM,44.6,44.6,100,30.27,2.8,West,1.2,-,N/A,,Overcast,280,2012-11-24 00:45:00
2:45 AM,44.6,44.6,100,30.27,2.5,Calm,Calm,-,N/A,,Overcast,0,2012-11-24 01:45:00
3:45 AM,44.6,44.6,100,30.27,2.5,WNW,1.2,-,N/A,,Overcast,290,2012-11-24 02:45:00
4:45 AM,44.6,44.6,100,30.27,1.9,North,1.2,-,N/A,,Overcast,350,2012-11-24 03:45:00
5:15 AM,44.6,44.6,100,30.27,1.9,NNE,1.2,-,N/A,,Overcast,20,2012-11-24 04:15:00
5:45 AM,44.6,44.6,100,30.27,2.5,Calm,Calm,-,N/A,,Overcast,0,2012-11-24 04:45:00
6:15 AM,44.6,44.6,100,30.27,1.9,ENE,1.2,-,N/A,,Overcast,60,2012-11-24 05:15:00
6:45 AM,44.6,44.6,100,30.27,1.9,Calm,Calm,-,N/A,,Mostly Cloudy,0,2012-11-24 05:45:00
7:00 AM,45,44,96,30.28,2,Calm,Calm,,,,Mist,,2012-11-24 06:00:00
7:15 AM,44.6,44.6,100,30.27,1.9,Calm,Calm,-,N/A,,Mostly Cloudy,0,2012-11-24 06:15:00
7:45 AM,44.6,44.6,100,30.27,1.9,Calm,Calm,-,N/A,,Mostly Cloudy,0,2012-11-24 06:45:00
8:15 AM,46.4,44.6,93,30.27,1.9,SE,1.2,-,N/A,,Mostly Cloudy,140,2012-11-24 07:15:00
8:45 AM,46.4,44.6,93,30.27,-9999.0,South,1.2,-,N/A,,Mostly Cloudy,170,2012-11-24 07:45:00
9:15 AM,46.4,44.6,93,30.30,-9999.0,South,2.3,-,N/A,,Mostly Cloudy,180,2012-11-24 08:15:00
9:45 AM,46.4,44.6,93,30.30,-9999.0,South,2.3,-,N/A,,Mostly Cloudy,170,2012-11-24 08:45:00
10:15 AM,48.2,44.6,87,30.30,-9999.0,South,2.3,-,N/A,,Mostly Cloudy,170,2012-11-24 09:15:00
11:15 AM,50.0,44.6,82,30.27,2.8,SSE,2.3,-,N/A,,Mostly Cloudy,160,2012-11-24 10:15:00
11:45 AM,50.0,44.6,82,30.27,2.8,South,2.3,-,N/A,,Mostly Cloudy,190,2012-11-24 10:45:00
12:15 PM,50.0,44.6,82,30.27,2.8,SSE,2.3,-,N/A,,Mostly Cloudy,160,2012-11-24 11:15:00
12:45 PM,50.0,44.6,82,30.27,3.7,SSE,2.3,-,N/A,,Mostly Cloudy,160,2012-11-24 11:45:00
1:00 PM,51,44,68,30.27,4,SSE,2.2,,,,Partly Cloudy,160,2012-11-24 12:00:00
1:15 PM,51.8,44.6,76,30.27,3.7,SSE,2.3,-,N/A,,Mostly Cloudy,150,2012-11-24 12:15:00
1:45 PM,51.8,44.6,76,30.27,3.7,SSW,1.2,-,N/A,,Mostly Cloudy,200,2012-11-24 12:45:00
2:15 PM,51.8,44.6,76,30.27,3.7,South,1.2,-,N/A,,Mostly Cloudy,170,2012-11-24 13:15:00
2:45 PM,51.8,44.6,76,30.27,4.3,SE,2.3,-,N/A,,Mostly Cloudy,140,2012-11-24 13:45:00
3:15 PM,51.8,44.6,76,30.27,4.3,SE,3.5,-,N/A,,Mostly Cloudy,140,2012-11-24 14:15:00
3:45 PM,50.0,44.6,82,30.27,3.7,SSE,3.5,-,N/A,,Mostly Cloudy,150,2012-11-24 14:45:00
4:15 PM,48.2,44.6,87,30.27,3.7,SE,3.5,-,N/A,,Scattered Clouds,130,2012-11-24 15:15:00
4:45 PM,46.4,42.8,87,30.27,2.8,SE,3.5,-,N/A,,Scattered Clouds,140,2012-11-24 15:45:00
5:15 PM,46.4,42.8,87,30.27,2.8,SE,2.3,-,N/A,,Scattered Clouds,140,2012-11-24 16:15:00
5:45 PM,44.6,42.8,93,30.27,2.8,SE,2.3,-,N/A,,Scattered Clouds,140,2012-11-24 16:45:00
6:15 PM,44.6,42.8,93,30.27,2.8,SSE,3.5,-,N/A,,Scattered Clouds,150,2012-11-24 17:15:00
6:45 PM,46.4,44.6,93,30.27,2.5,SSE,4.6,-,N/A,,Mostly Cloudy,160,2012-11-24 17:45:00
7:00 PM,46,44,92,30.27,2,SSE,4.5,,,,Mist,160,2012-11-24 18:00:00
7:15 PM,46.4,44.6,93,30.27,2.5,SSE,5.8,-,N/A,,Mostly Cloudy,150,2012-11-24 18:15:00
7:45 PM,44.6,42.8,93,30.27,2.5,SSE,3.5,-,N/A,,Mostly Cloudy,150,2012-11-24 18:45:00
8:15 PM,42.8,41.0,93,30.27,2.5,SE,2.3,-,N/A,,Mostly Cloudy,130,2012-11-24 19:15:00
8:45 PM,41.0,41.0,100,30.27,1.6,SE,4.6,-,N/A,,Scattered Clouds,130,2012-11-24 19:45:00
9:41 PM,37.4,37.4,100,30.27,0.2,SSE,1.2,-,N/A,Fog,Fog,150,2012-11-24 20:41:00
9:45 PM,37.4,37.4,100,30.27,0.2,SSE,1.2,-,N/A,Fog,Fog,150,2012-11-24 20:45:00
10:45 PM,37.4,37.4,100,30.24,0.2,SSE,3.5,-,N/A,Fog,Fog,150,2012-11-24 21:45:00
11:45 PM,33.8,33.8,100,30.24,0.2,SE,2.3,-,N/A,Fog,Fog,140,2012-11-24 22:45:00